Flag for Monaco Weather past 2 weeks in Monaco, Monaco

Now
43 °F

Partly sunny.


Feels Like: 38 °F
Forecast: 31 / 49 °F
Wind: 8 mph from Northwest

Location: Nice Airport

Current Time: Feb 1, 2015 at 10:06:30 AM

Latest Report: Feb 1, 2015 at 9:30 AM


Visibility: N/A

Pressure: 29.24 "Hg

Humidity: 42%

Dew point: 21 °F

Location of MonacoLocation

Historic Weather in Monaco — Graph

°F

Monaco temperature yesterday

Maximum temperature yesterday: 55 °F (at 3:00 PM)
Minimum temperature yesterday: 39 °F (at 3:30 AM)
Average temperature yesterday: 46 °F

Past Weeks' High & Low Weather Summary

 TemperatureHumidityPressure
High63 °F (Jan 23, 3:00 PM)87% (Jan 21, 3:00 PM)30.21 "Hg (Jan 21, 3:00 PM)
Low39 °F (Jan 18, 2:00 AM)19% (Jan 30, 1:30 PM)28.88 "Hg (Jan 30, 5:00 AM)
Average47 °F57%29.74 "Hg
* Reported Jan 17 8:00 AM — Feb 1 8:30 AM, Monaco, Weather by CustomWeather, © 2014

Note: Actual official high and low records may vary slightly from our data, if they occured in-between our weather recording intervals... More about our weather records

Advertising

Monaco weather history for previous 24 hours

 ConditionsComfort  
Time TempWeatherWind HumidityBarometerVisibility
8:30 AM
Feb 1
39 °FScattered clouds.8 mph52%29.24 "HgN/A
8:00 AM39 °FScattered clouds.6 mph52%29.24 "HgN/A
7:30 AM39 °FPassing clouds.7 mph52%29.24 "HgN/A
7:00 AM39 °FPassing clouds.9 mph52%29.21 "HgN/A
6:30 AM39 °FPassing clouds.10 mph52%29.21 "HgN/A
6:00 AM39 °FPassing clouds.9 mph52%29.21 "HgN/A
5:30 AM39 °FPassing clouds.8 mph56%29.21 "HgN/A
5:00 AM41 °FPassing clouds.8 mph53%29.18 "HgN/A
4:30 AM43 °FPassing clouds.12 mph49%29.18 "HgN/A
4:00 AM43 °FPassing clouds.14 mph49%29.18 "HgN/A
3:30 AM43 °FPartly cloudy.6 mph49%29.18 "HgN/A
3:00 AM43 °FPartly cloudy.6 mph49%29.18 "HgN/A
2:30 AM43 °FPassing clouds.5 mph49%29.18 "HgN/A
2:00 AM41 °FPassing clouds.6 mph53%29.15 "HgN/A
1:30 AM41 °FPassing clouds.12 mph57%29.15 "HgN/A
1:00 AM41 °FPassing clouds.7 mph57%29.15 "HgN/A
12:30 AM41 °FPassing clouds.12 mph61%29.15 "HgN/A
12:00 AM41 °FPassing clouds.9 mph61%29.15 "HgN/A
11:30 PM
Jan 31
43 °FPassing clouds.10 mph57%29.15 "HgN/A
11:00 PM43 °FPassing clouds.8 mph57%29.15 "HgN/A
10:30 PM43 °FPassing clouds.5 mph66%29.15 "HgN/A
9:30 PM43 °FPassing clouds.7 mph66%29.15 "HgN/A
9:00 PM43 °FPassing clouds.9 mph71%29.15 "HgN/A
8:30 PM45 °FPassing clouds.9 mph71%29.15 "HgN/A
8:00 PM45 °FPassing clouds.9 mph71%29.12 "HgN/A
7:30 PM46 °FPassing clouds.6 mph66%29.12 "HgN/A
7:00 PM46 °FPassing clouds.6 mph66%29.12 "HgN/A
6:30 PM48 °FPassing clouds.2 mph54%29.09 "HgN/A
6:00 PM52 °FPassing clouds.2 mph47%29.09 "HgN/A
5:00 PM54 °FPartly sunny.6 mph51%29.09 "HgN/A
4:30 PM54 °FScattered clouds.7 mph51%29.06 "HgN/A
4:00 PM54 °FScattered clouds.5 mph51%29.06 "HgN/A
3:30 PM54 °FScattered clouds.2 mph54%29.06 "HgN/A
3:00 PM55 °FScattered clouds.5 mph51%29.06 "HgN/A
2:30 PM54 °FScattered clouds.5 mph54%29.06 "HgN/A
2:00 PM54 °FScattered clouds.6 mph51%29.06 "HgN/A
1:30 PM54 °FScattered clouds.5 mph47%29.06 "HgN/A
1:00 PM54 °FScattered clouds.3 mph47%29.06 "HgN/A
12:40 PM54 °FScattered clouds.5 mph38%29.06 "HgN/A
12:00 PM52 °FScattered clouds.8 mph32%29.06 "HgN/A
11:30 AM52 °FPartly sunny.9 mph32%29.06 "HgN/A
11:00 AM50 °FScattered clouds.8 mph30%29.06 "HgN/A
10:30 AM48 °FScattered clouds.13 mph32%29.06 "HgN/A
10:00 AM45 °FScattered clouds.15 mph37%29.06 "HgN/A
Weather by CustomWeather, © 2014

See weather overviewHow to use our weather pages